Location: Sabalos
(43.2860°N, 0.1414°E)
Time: 08:43:56
(UTC+00:00)

SPOT 1/Viking Rocket - Pass Details

Date: 05 July 2020
Orbit: 778 x 793 km, 98.5° (Epoch: 14 August)

Event Time Altitude Azimuth Distance (km) Brightness Sun altitude
Exits shadow 21:31:54 18° 178° (S) 1,833 5.0 -15.3°
Maximum altitude 21:35:43 67° 258° (WSW) 844 3.8 -15.7°
Drops below altitude 10° 21:40:53 10° 341° (NNW) 2,349 7.2 -16.3°
Sets 21:43:14 0° 344° (NNW) 3,284 8.2 -16.5°
